User: anonymous   Login
Location: Caltech
(34.1382°N, 118.1253°W)
Time: 00:10:34
(UTC-07:00)
Language:

Cosmos 1975 - Orbit

View from above orbital plane
View from above orbital plane
View from above satellite
View from above satellite

Ground track
Ground track

The orbit data is extracted from the following two-line orbital elements,

1 19573U 88093A   17176.58633341 +.00000765 +00000-0 +53018-4 0  9997
2 19573 082.5196 337.3531 0012876 271.0552 088.9199 15.04175666539933
Epoch (UTC): 25 June 2017 14:04:19
Eccentricity: 0.0012876
inclination: 82.5196°
perigee height: 545 km
apogee height: 563 km
right ascension of ascending node: 337.3531°
argument of perigee: 271.0552°
revolutions per day: 15.04175666
mean anomaly at epoch: 88.9199°
orbit number at epoch: 53993

The dashed part of the orbit path shows where the satellite is in the earth's shadow,  

DLR